Regional Weather Roundup
Issued by NWS Sioux Falls, SD

Home | Current Version | Previous Version | Graphics & Text | Print | Product List | Glossary On
Versions: 1 2 3 4 5 6 7 8 9 10 11 12 13 14 15 16 17 18 19 20 21 22 23 24 25 26 27 28 29 30 31 32 33 34 35 36 37 38 39 40 41 42 43 44 45 46 47 48 49 50
000
ASUS43 KFSD 280302
RWRFSD

WEATHER ROUNDUP FOR SE SOUTH DAKOTA/SW MINNESOTA/NW IOWA
NATIONAL WEATHER SERVICE SIOUX FALLS SD
1000 PM CDT WED MAY 27 2015

NOTE: "FAIR" INDICATES FEW OR NO CLOUDS BELOW 12,000 FEET WITH NO
SIGNIFICANT WEATHER AND OR OBSTRUCTIONS TO VISIBILITY.


SDZ038>040-050-052>070-280400-
SOUTHEAST SOUTH DAKOTA

CITY           SKY/WX    TMP DP  RH WIND       PRES   REMARKS
BROOKINGS      MOCLDY    73  50  43 S6        30.02R
CHAMBERLAIN    CLOUDY    65  53  64 SE9       29.96R
HURON            N/A    N/A N/A N/A MISG      29.96S
MADISON        FAIR      72  50  46 S3        30.02R
MITCHELL       CLOUDY    70  55  59 SE8       29.97S
SIOUX FALLS    PTCLDY    67  52  58 S8        30.01R
WINNER         FAIR      71  51  49 S14       29.95S
YANKTON        PTCLDY    72  48  43 S8        29.99R
$$

MNZ071-072-080-081-089-090-097-098-280400-
SOUTHWEST MINNESOTA

CITY           SKY/WX    TMP DP  RH WIND       PRES   REMARKS
FAIRMONT       PTCLDY    72  54  53 S6        30.03R
JACKSON        PTCLDY    70  54  56 S6        30.05R
LUVERNE        CLEAR     70  54  56 CALM      30.03R
MARSHALL       PTCLDY    73  48  40 S7        30.00R
MONTEVIDEO     CLEAR     72  48  43 CALM      30.00R
REDWOOD FALLS  CLEAR     73  54  51 SE5       30.00R
TRACY          CLEAR     69  53  55 SW6       30.02R
WINDOM         MOCLDY    72  54  53 CALM      30.03R
WORTHINGTON    CLEAR     70  52  52 SW6       30.04R
$$

IAZ001>003-012>014-020>022-031-032-NEZ013-014-SDZ071-280400-
NORTHWEST IOWA

CITY           SKY/WX    TMP DP  RH WIND       PRES   REMARKS
DENISON        PTCLDY    64  61  88 CALM      30.04R
ESTHERVILLE    PTCLDY    68  56  65 S7        30.04R
SIOUX CITY     MOCLDY    71  52  50 S8        30.03R
SPENCER        CLEAR     68  56  65 S6        30.04R
$$

ABBREVIATIONS USED IN REMARKS
   TC - TEMPERATURE IN CELSIUS
  WCI - WIND CHILL INDEX
   HX - HEAT INDEX
  VSB - VISIBILITY



USA.gov is the U.S. government's official web portal to all federal, state and local government web resources and services.